Location: Domicella
(40.8833°N, 14.5833°E)
Time: 05:23:03
(UTC+00:00)

Cosmos 2173 Rocket - Pass Details

Date: 15 May 2026
Orbit: 945 x 998 km, 83.0° (Epoch: 6 June)

Event Time Altitude Azimuth Distance (km) Brightness Sun altitude
Rises 18:52:29 0° 191° (S) 3,611 6.7 -7.4°
Reaches altitude 10° 18:54:58 10° 193° (SSW) 2,675 6.1 -7.8°
Maximum altitude 19:01:05 74° 278° (W) 1,003 4.3 -8.8°
Drops below altitude 10° 19:07:20 10° 4° (N) 2,729 6.8 -9.7°
Sets 19:09:53 0° 6° (N) 3,688 7.5 -10.1°
